Date String (YYYY-MM-DD hh:mm:ss) UTC,Instrument flags,absolute air pressure of the measurement (hPa),sample flow rate (lpm),inlet stack bypass flow (lpm),air temperature of the measurement (°C),ambient temperature measured by the external sensor (°C),aerosol sample conditioner tube jacket temperature (°C),OPC LED temperature (°C),internal box temperature (°C),relative humidity of the measurement (%),span deviation,mass concentration of particles derived from Lorenz-Mie calculation of OPC scattering (μg/m³),mass concentration of particles derived from Lorenz-Mie calculation of OPC scattering (μg/m³),mass concentration of particles derived from Lorenz-Mie calculation of OPC scattering (μg/m³)
DateTimeUTC,F1_M11,P_M11,Q1_M11,Q2_M11,T1_M11,T2_M11,T3_M11,T4_M11,T5_M11,U1_M11,ZSPAN_M11,X2_M11,X0_M11,X1_M11
2024-02-27 21:00:00,SystemResetWarning,0817.8,5.00,000.00,018.2,017.5,000.0,026.8,020.0,19.7,0000.0,0003.24,0007.44,0002.56
2024-02-27 21:01:00,SystemResetWarning,0817.8,5.00,000.00,018.2,017.5,000.0,026.8,020.0,18.9,0000.0,0003.27,0007.51,0002.57
2024-02-27 21:02:00,SystemResetWarning,0817.8,5.01,000.00,018.2,017.5,000.0,026.9,020.0,18.5,0000.0,0003.28,0006.91,0002.59
2024-02-27 21:03:00,SystemResetWarning,0817.8,5.00,000.00,018.2,017.5,000.0,026.8,020.0,19.0,0000.0,0003.27,0007.87,0002.60
2024-02-27 21:04:00,SystemResetWarning,0817.9,5.00,000.00,018.2,017.5,000.0,026.8,020.0,18.0,0000.0,0003.25,0007.84,0002.58
2024-02-27 21:05:00,SystemResetWarning,0817.9,4.99,000.00,018.2,017.5,000.0,026.9,020.0,18.1,0000.0,0003.26,0007.61,0002.58
2024-02-27 21:06:00,SystemResetWarning,0817.9,5.00,000.00,018.2,017.5,000.0,026.8,020.0,18.3,0000.0,0003.30,0007.69,0002.58
2024-02-27 21:07:00,SystemResetWarning,0818.0,5.00,000.00,018.2,017.5,000.0,026.8,020.0,18.0,0000.0,0003.33,0008.07,0002.60
2024-02-27 21:08:00,SystemResetWarning,0818.0,5.00,000.00,018.2,017.5,000.0,026.8,020.0,18.1,0000.0,0003.35,0008.11,0002.63
2024-02-27 21:09:00,SystemResetWarning,0818.0,5.00,000.00,018.2,017.5,000.0,026.8,020.0,18.4,0000.0,0003.35,0008.12,0002.64
2024-02-27 21:10:00,SystemResetWarning,0818.0,5.00,000.00,018.2,017.5,000.0,026.8,020.0,19.6,0000.0,0003.34,0007.98,0002.63
2024-02-27 21:11:00,SystemResetWarning,0818.0,5.00,000.00,018.2,017.5,000.0,026.8,020.0,19.3,0000.0,0003.33,0007.94,0002.62
2024-02-27 21:12:00,SystemResetWarning,0818.0,5.01,000.00,018.2,017.5,000.0,026.8,020.0,19.0,0000.0,0003.35,0007.95,0002.61
2024-02-27 21:13:00,SystemResetWarning,0818.0,5.01,000.00,018.2,017.5,000.0,026.9,020.0,19.0,0000.0,0003.36,0007.98,0002.60
2024-02-27 21:14:00,SystemResetWarning,0818.0,5.00,000.00,018.2,017.5,000.0,026.9,020.0,18.8,0000.0,0003.35,0006.96,0002.59
2024-02-27 21:15:00,SystemResetWarning,0818.0,4.99,000.00,018.2,017.5,000.0,026.8,020.0,18.9,0000.0,0003.38,0007.44,0002.62
2024-02-27 21:16:00,SystemResetWarning,0818.0,5.00,000.00,018.2,017.5,000.0,026.8,020.0,19.4,0000.0,0003.37,0007.76,0002.63
2024-02-27 21:17:00,SystemResetWarning,0818.0,5.00,000.00,018.2,017.5,000.0,026.9,020.0,19.2,0000.0,0003.36,0007.73,0002.65
2024-02-27 21:18:00,SystemResetWarning,0818.0,5.00,000.00,018.2,017.5,000.0,026.9,020.0,18.7,0000.0,0003.38,0007.34,0002.63
2024-02-27 21:19:00,SystemResetWarning,0818.0,5.01,000.00,018.2,017.5,000.0,026.9,020.0,19.1,0000.0,0003.40,0008.13,0002.62
2024-02-27 21:20:00,SystemResetWarning,0818.0,5.01,000.00,018.4,018.1,000.0,027.0,020.4,18.3,0000.0,0003.40,0008.14,0002.62
2024-02-27 21:21:00,SystemResetWarning,0818.1,4.99,000.00,018.6,018.8,000.0,027.0,020.8,18.8,0000.0,0003.41,0008.16,0002.63
2024-02-27 21:22:00,SystemResetWarning,0818.1,4.99,000.00,018.7,018.7,000.0,027.0,020.8,19.0,0000.0,0003.40,0008.07,0002.65
2024-02-27 21:23:00,SystemResetWarning,0818.1,5.01,000.00,018.7,018.7,000.0,026.9,020.7,18.3,0000.0,0003.37,0007.94,0002.66
2024-02-27 21:24:00,SystemResetWarning,0818.1,5.00,000.00,018.7,018.6,000.0,026.9,020.6,19.2,0000.0,0003.36,0007.99,0002.67
2024-02-27 21:25:00,SystemResetWarning,0818.1,5.00,000.00,018.7,018.5,000.0,027.0,020.5,18.6,0000.0,0003.36,0007.92,0002.68
2024-02-27 21:26:00,SystemResetWarning,0818.1,5.00,000.00,018.7,018.4,000.0,027.0,020.5,17.9,0000.0,0003.35,0007.58,0002.66
2024-02-27 21:27:00,SystemResetWarning,0818.1,4.99,000.00,018.7,018.4,000.0,027.0,020.4,19.2,0000.0,0003.35,0007.33,0002.66
2024-02-27 21:28:00,SystemResetWarning,0818.1,5.00,000.00,018.7,018.3,000.0,027.0,020.4,18.1,0000.0,0003.38,0007.40,0002.66
2024-02-27 21:29:00,SystemResetWarning,0818.1,5.00,000.00,018.7,018.3,000.0,027.0,020.4,18.0,0000.0,0003.37,0007.34,0002.67
2024-02-27 21:30:00,SystemResetWarning,0818.2,5.00,000.00,018.7,018.3,000.0,027.0,020.4,17.9,0000.0,0003.37,0006.02,0002.67
2024-02-27 21:31:00,SystemResetWarning,0818.3,4.99,000.00,018.7,018.2,000.0,027.0,020.4,18.6,0000.0,0003.38,0006.01,0002.68
2024-02-27 21:32:00,SystemResetWarning,0818.3,5.01,000.00,018.7,018.2,000.0,027.0,020.4,18.6,0000.0,0003.38,0006.27,0002.69
2024-02-27 21:33:00,SystemResetWarning,0818.3,5.01,000.00,018.7,018.2,000.0,027.0,020.4,17.2,0000.0,0003.39,0006.46,0002.67
2024-02-27 21:34:00,SystemResetWarning,0818.3,5.01,000.00,018.7,018.2,000.0,027.0,020.4,17.6,0000.0,0003.37,0006.75,0002.65
2024-02-27 21:35:00,SystemResetWarning,0818.4,4.99,000.00,018.7,018.2,000.0,027.0,020.4,18.0,0000.0,0003.37,0007.09,0002.63
2024-02-27 21:36:00,SystemResetWarning,0818.4,4.99,000.00,018.7,018.2,000.0,027.1,020.4,17.7,0000.0,0003.38,0007.14,0002.62
2024-02-27 21:37:00,SystemResetWarning,0818.4,5.00,000.00,018.7,018.2,000.0,027.1,020.4,17.7,0000.0,0003.38,0007.17,0002.62
2024-02-27 21:38:00,SystemResetWarning,0818.5,5.00,000.00,018.7,018.2,000.0,027.1,020.4,17.1,0000.0,0003.35,0006.97,0002.60
2024-02-27 21:39:00,SystemResetWarning,0818.5,5.01,000.00,018.7,018.1,000.0,027.1,020.4,17.0,0000.0,0003.31,0007.27,0002.58
2024-02-27 21:40:00,SystemResetWarning,0818.5,5.00,000.00,018.7,018.1,000.0,027.1,020.4,17.7,0000.0,0003.31,0007.84,0002.58
2024-02-27 21:41:00,SystemResetWarning,0818.7,4.99,000.00,018.7,018.1,000.0,027.1,020.5,18.1,0000.0,0003.30,0008.45,0002.57
2024-02-27 21:42:00,SystemResetWarning,0818.6,4.99,000.00,018.7,018.1,000.0,027.1,020.5,18.2,0000.0,0003.30,0008.47,0002.57
2024-02-27 21:43:00,SystemResetWarning,0818.6,5.01,000.00,018.7,018.1,000.0,027.1,020.5,17.5,0000.0,0003.28,0008.40,0002.55
2024-02-27 21:44:00,SystemResetWarning,0818.7,5.01,000.00,018.7,018.1,000.0,027.1,020.5,17.4,0000.0,0003.24,0008.71,0002.54
2024-02-27 21:45:00,SystemResetWarning,0818.8,5.00,000.00,018.7,018.1,000.0,027.1,020.4,16.4,0000.0,0003.24,0008.71,0002.54
2024-02-27 21:46:00,SystemResetWarning,0818.8,4.99,000.00,018.7,018.2,000.0,027.1,020.5,15.9,0000.0,0003.22,0008.62,0002.54
2024-02-27 21:47:00,SystemResetWarning,0818.8,4.99,000.00,018.7,018.2,000.0,027.1,020.5,16.0,0000.0,0003.19,0009.35,0002.53
2024-02-27 21:48:00,SystemResetWarning,0818.9,5.01,000.00,018.7,018.2,000.0,027.1,020.5,16.2,0000.0,0003.17,0009.62,0002.53
2024-02-27 21:49:00,SystemResetWarning,0819.2,5.00,000.00,018.7,018.2,000.0,027.1,020.5,16.3,0000.0,0003.18,0009.58,0002.52
2024-02-27 21:50:00,SystemResetWarning,0819.1,5.01,000.00,018.8,018.2,000.0,027.1,020.5,16.4,0000.0,0003.22,0009.73,0002.51
2024-02-27 21:51:00,SystemResetWarning,0819.1,4.99,000.00,018.8,018.2,000.0,027.1,020.5,16.7,0000.0,0003.21,0009.69,0002.51
2024-02-27 21:52:00,SystemResetWarning,0819.0,4.99,000.00,018.8,018.2,000.0,027.1,020.5,16.0,0000.0,0003.19,0009.30,0002.49
2024-02-27 21:53:00,SystemResetWarning,0819.0,5.00,000.00,018.8,018.2,000.0,027.1,020.5,16.1,0000.0,0003.19,0009.70,0002.49
2024-02-27 21:54:00,SystemResetWarning,0819.0,5.01,000.00,018.8,018.3,000.0,027.1,020.5,15.7,0000.0,0003.22,0010.37,0002.49
2024-02-27 21:55:00,SystemResetWarning,0819.1,5.00,000.00,018.8,018.3,000.0,027.1,020.5,16.6,0000.0,0003.23,0010.21,0002.49
2024-02-27 21:56:00,SystemResetWarning,0819.2,4.99,000.00,018.8,018.3,000.0,027.1,020.6,16.5,0000.0,0003.24,0009.94,0002.47
2024-02-27 21:57:00,SystemResetWarning,0819.1,5.00,000.00,018.8,018.3,000.0,027.2,020.6,12.2,0000.0,0003.26,0009.86,0002.46
2024-02-27 21:58:00,SystemResetWarning,0819.0,5.00,000.00,018.8,018.3,000.0,027.2,020.6,10.1,0000.0,0003.26,0009.02,0002.45
2024-02-27 21:59:00,SystemResetWarning,0819.0,5.01,000.00,018.8,018.3,000.0,027.2,020.6,09.4,0000.0,0003.26,0008.93,0002.42
